TimeMDT,TemperatureF,Dew PointF,Humidity,Sea Level PressureIn,VisibilityMPH,Wind Direction,Wind SpeedMPH,Gust SpeedMPH,PrecipitationIn,Events,Conditions,WindDirDegrees,DateUTC
12:53 AM,7.0,-2.0,67,30.34,10.0,NW,3.5,-,N/A,,Overcast,320,2013-03-25 06:53:00
1:53 AM,5.0,-2.9,70,30.35,10.0,NW,3.5,-,N/A,,Mostly Cloudy,320,2013-03-25 07:53:00
2:53 AM,5.0,-2.9,70,30.34,10.0,Calm,Calm,-,N/A,,Clear,0,2013-03-25 08:53:00
3:53 AM,-0.9,-5.1,83,30.37,10.0,NW,3.5,-,N/A,,Clear,310,2013-03-25 09:53:00
4:53 AM,-2.0,-7.1,79,30.38,10.0,Calm,Calm,-,N/A,,Clear,0,2013-03-25 10:53:00
5:53 AM,-4.0,-9.0,79,30.40,10.0,WNW,3.5,-,N/A,,Clear,290,2013-03-25 11:53:00
6:53 AM,-2.9,-9.0,75,30.40,10.0,Calm,Calm,-,N/A,,Clear,0,2013-03-25 12:53:00
7:53 AM,3.9,-2.9,73,30.39,10.0,West,3.5,-,N/A,,Clear,270,2013-03-25 13:53:00
8:53 AM,16.0,-0.0,49,30.35,10.0,Calm,Calm,-,N/A,,Clear,0,2013-03-25 14:53:00
9:53 AM,19.9,1.0,44,30.35,10.0,Variable,3.5,-,N/A,,Clear,0,2013-03-25 15:53:00
10:53 AM,23.0,1.0,39,30.33,10.0,Variable,4.6,-,N/A,,Clear,0,2013-03-25 16:53:00
11:53 AM,27.0,1.9,34,30.31,10.0,Calm,Calm,-,N/A,,Clear,0,2013-03-25 17:53:00
12:53 PM,28.0,3.0,34,30.29,10.0,Variable,4.6,-,N/A,,Clear,0,2013-03-25 18:53:00
1:53 PM,28.9,9.0,43,30.29,10.0,SSE,9.2,21.9,N/A,,Partly Cloudy,160,2013-03-25 19:53:00
2:53 PM,30.0,10.9,45,30.27,10.0,South,12.7,19.6,N/A,,Clear,190,2013-03-25 20:53:00
3:53 PM,30.0,10.9,45,30.30,10.0,SSW,12.7,20.7,N/A,,Clear,200,2013-03-25 21:53:00
4:53 PM,30.0,12.0,47,30.30,10.0,SSW,13.8,18.4,N/A,,Clear,200,2013-03-25 22:53:00
5:53 PM,28.0,12.9,53,30.32,10.0,SSW,8.1,17.3,N/A,,Clear,200,2013-03-25 23:53:00
6:53 PM,24.1,12.9,62,30.34,10.0,South,8.1,17.3,N/A,,Clear,180,2013-03-26 00:53:00
7:53 PM,19.9,12.0,71,30.33,10.0,South,5.8,-,N/A,,Clear,180,2013-03-26 01:53:00
8:53 PM,18.0,10.9,74,30.28,10.0,SSW,4.6,-,N/A,,Clear,210,2013-03-26 02:53:00
9:53 PM,17.1,10.0,74,30.27,10.0,SSW,4.6,-,N/A,,Clear,210,2013-03-26 03:53:00
10:53 PM,16.0,8.1,71,30.25,10.0,WSW,3.5,-,N/A,,Clear,240,2013-03-26 04:53:00
11:53 PM,15.1,6.1,68,30.23,10.0,SSW,4.6,-,N/A,,Clear,200,2013-03-26 05:53:00